This demonstration page uses our WeatherBlox Daily Observations layout. Learn more.

Left ArrowRight Arrow

Hourly Observations for March 26, 2021

Temp ( °F °C ) Dew Point ( °F °C ) Humidity (%) Winds ( mph kmh ) Pressure ( in mb ) Visibility ( mi km ) Precip ( " mm )
12:53 am 00:53 Cloudy 29 -1.7 23 -5 78 78 E 3 6 29.98 1015 10 16 N/A
1:53 am 01:53 Cloudy 28 -2.2 23 -5 81 81 N N/A 29.98 1015 10 16 N/A
2:00 am 02:00 Cloudy 28 -2.2 23 -5 81 81 N N/A 30.02 1017 10 16 N/A
2:53 am 02:53 Mostly Cloudy 25 -3.9 22 -5.6 88 88 S 3 6 29.98 1015 10 16 N/A
3:53 am 03:53 Mostly Clear 22 -5.6 20 -6.7 92 92 N N/A 29.97 1015 10 16 N/A
4:53 am 04:53 Cloudy 23 -5 20 -6.7 88 88 S 3 6 29.95 1014 10 16 N/A
5:53 am 05:53 Cloudy 23 -5 20 -6.7 88 88 ENE 5 7 29.95 1014 10 16 N/A
6:53 am 06:53 Cloudy 24 -4.4 21 -6.1 88 88 NE 3 6 29.96 1015 10 16 N/A
7:53 am 07:53 Cloudy 22 -5.6 19 -7.2 89 89 W 3 6 29.98 1015 10 16 N/A
8:53 am 08:53 Mostly Sunny 25 -3.9 22 -5.6 88 88 ESE 3 6 29.97 1015 10 16 N/A
9:53 am 09:53 Sunny 32 undefined 26 -3.3 79 79 NE 3 6 29.96 1014 10 16 N/A
10:53 am 10:53 Partly Cloudy 35 1.7 25 -3.9 67 67 E 6 9 29.93 1014 10 16 N/A
11:53 am 11:53 Cloudy 38 3.3 26 -3.3 62 62 N N/A 29.92 1013 10 16 N/A
12:53 pm 12:53 Cloudy 40 4.4 27 -2.8 60 60 W 9 15 29.92 1013 10 16 N/A
1:53 pm 13:53 Cloudy 41 5 30 -1.1 65 65 WNW 18 30 29.92 1013 10 16 N/A
2:53 pm 14:53 Cloudy 40 4.4 32 undefined 73 73 W 8 13 29.91 1013 10 16 N/A
3:53 pm 15:53 Cloudy 42 5.6 30 -1.1 62 62 NW 17 28 29.92 1013 10 16 N/A
4:00 pm 16:00 Mostly Cloudy 41 5 31 -0.6 67 67 NW 14 22 29.90 1012 10 16 N/A
4:53 pm 16:53 Cloudy 42 5.6 28 -2.2 58 58 NW 8 13 29.92 1013 10 16 N/A
5:53 pm 17:53 Cloudy 40 4.4 28 -2.2 63 63 NW 12 19 29.96 1015 10 16 N/A
6:53 pm 18:53 Cloudy 40 4.4 28 -2.2 63 63 NNW 13 20 29.98 1015 10 16 N/A
7:53 pm 19:53 Cloudy 36 2.2 27 -2.8 70 70 NNE 6 9 30.02 1017 10 16 N/A
8:53 pm 20:53 Mostly Cloudy 35 1.7 27 -2.8 72 72 E 7 11 30.04 1017 10 16 N/A
9:53 pm 21:53 Cloudy 32 undefined 26 -3.3 79 79 ESE 5 7 30.06 1018 10 16 N/A
10:53 pm 22:53 Cloudy 32 undefined 26 -3.3 79 79 N N/A 30.07 1018 10 16 N/A
11:38 pm 23:38 Cloudy with Light Snow 32 undefined 28 -2.2 85 85 SSW 9 15 30.10 1019 3 4 0.00 0.00
11:42 pm 23:42 Cloudy with Light Snow 32 undefined 28 -2.2 85 85 SW 8 13 30.11 1020 1 2 0.01 0.25
11:53 pm 23:53 Cloudy with Light Snow 31 -0.6 30 -1.1 96 96 SW 7 11 30.07 1018 2 3 0.02 0.51
11:57 pm 23:57 Cloudy with Light Snow 31 -0.6 30 -1.1 96 96 SW 7 11 30.12 1020 4 6 0.00 0.00

Powered by AerisWeather